Location: Владивосток
(43.1151°N, 131.8856°E)
Time: 00:21:52
(UTC+10:00)

Envisat - Pass Details

Date: 22 January 2022
Orbit: 764 x 765 km, 98.2° (Epoch: 17 May)

Event Time Altitude Azimuth Distance (km) Brightness Sun altitude
Rises 06:46:12 0° 6° (N) 3,240 6.2 -20.1°
Reaches altitude 10° 06:48:36 10° 0° (N) 2,310 5.4 -19.7°
Maximum altitude 06:53:23 43° 290° (WNW) 1,066 3.3 -18.8°
Drops below altitude 10° 06:58:09 10° 220° (SW) 2,296 5.2 -17.9°
Sets 07:00:32 0° 214° (SSW) 3,218 6.0 -17.5°
